[[{"header":{"parameterUnit":"m.s-1","parameterCategory":1,"la1":30.2992,"la2":30.254,"lo1":-89.0895,"lo2":-89.0443,"dy":0.0025,"dx":0.0025,"nx":19,"ny":19,"refTime":"2026-04-15T09:00:00:Z","depth":0,"parameterNumber":2,"parameterNumberName":"U-component_of_WINDS"},"data":[0,0,0,2.6506,2.6507,2.6558,2.6559,2.6634,2.6635,0,0,0,0,0,0,0,0,0,0,0,2.6499,2.65,2.6506,2.6508,2.6558,2.6559,2.6634,2.6635,0,0,0,0,0,0,0,0,0,0,0,2.6499,2.65,2.6501,2.6508,2.6558,2.6559,2.6634,2.6591,0,0,0,0,0,0,0,0,0,0,2.654,2.6542,2.65,2.6501,2.6508,2.6558,2.6559,2.6589,2.6594,2.6616,0,2.664,0,2.6639,2.6641,2.6641,0,0,0,2.6501,2.6538,2.6544,2.6501,2.6509,2.6558,2.6534,2.6592,2.6597,2.6623,2.6641,2.6643,2.664,2.6642,2.6642,2.6795,2.6796,0,0,2.6498,2.6512,2.6541,2.6549,2.6543,2.6532,2.6535,2.6595,2.6615,2.6641,2.6645,2.6641,2.6642,2.6643,2.6794,2.6795,0,0,0,2.6494,2.6511,2.6515,2.6546,2.6554,2.6534,2.6537,2.6612,2.6612,2.6646,2.6642,2.6643,2.6644,2.6793,2.6794,2.6857,0,0,0,2.6492,2.6509,2.6515,2.6524,2.6553,2.6584,2.6554,2.6608,2.6615,2.6642,2.6643,2.6645,2.6792,2.6794,2.6852,2.6883,0,0,0,2.6493,2.6508,2.6519,2.6524,2.6547,2.6583,2.6587,2.6609,2.6613,2.6641,2.6645,2.6791,2.6793,2.6849,2.6877,2.6925,0,0,0,2.6497,2.6575,2.652,2.6605,2.6547,2.6623,2.6586,2.6642,2.6674,2.6643,2.6792,2.6794,2.6848,2.6873,2.6921,2.6965,2.6986,0,0,2.6602,2.6588,2.6637,2.6589,2.6678,2.6614,2.6711,2.6727,2.6716,2.6769,2.6772,2.6854,2.6876,2.6924,2.7104,2.7121,0,0,0,2.6674,2.6709,2.673,2.6761,2.6776,2.679,2.6789,2.6795,2.6839,2.6747,2.6886,2.6898,2.6926,2.6946,2.696,2.6981,2.6805,2.6805,2.6805,2.6841,2.6825,2.6903,2.6892,2.6923,2.6922,2.6944,2.6951,2.6925,2.6958,2.6972,2.7084,2.7109,2.7119,2.7141,2.6998,2.6998,2.6998,2.6998,2.6991,2.7036,2.7,2.7063,2.7044,2.7096,2.7097,2.7077,2.7121,2.7072,2.7095,2.704,2.7138,2.7156,2.7003,2.7002,2.7002,2.7001,2.7001,2.7095,2.7113,2.712,2.7163,2.7197,2.7184,2.7228,2.721,2.7193,2.7216,2.7227,2.7226,2.7219,2.7224,2.7224,2.7224,2.7225,2.7225,2.7225,2.7199,2.7205,2.7244,2.7266,2.7283,2.7303,2.7303,2.7318,2.733,2.7313,2.7313,2.7282,2.7153,2.7118,2.7231,2.723,2.7229,2.7229,2.7228,2.735,2.7313,2.7374,2.7391,2.7414,2.7448,2.7426,2.7459,2.747,2.7491,2.7456,2.7365,2.7347,2.7336,2.7307,2.7462,2.7462,2.7462,2.7462,2.7435,2.7426,2.7483,2.7511,2.7537,2.7522,2.7589,2.759,2.7584,2.7589,2.7565,2.7526,2.7516,2.7505,2.749,2.7462,2.7653,2.7653,2.7653,2.7525,2.7517,2.7578,2.7573,2.759,2.7604,2.7665,2.7697,2.7684,2.766,2.7591,2.7583,2.7521,2.7503,2.7474,2.7451,2.74,0,0]},{"header":{"parameterUnit":"m.s-1","parameterCategory":1,"la1":30.2992,"la2":30.254,"lo1":-89.0895,"lo2":-89.0443,"dy":0.0025,"dx":0.0025,"nx":19,"ny":19,"refTime":"2026-04-15T09:00:00:Z","depth":0,"parameterNumber":3,"parameterNumberName":"V-component_of_WINDS"},"data":[0,0,0,3.1627,3.163,3.1751,3.1751,3.1908,3.191,0,0,0,0,0,0,0,0,0,0,0,3.1594,3.1595,3.1627,3.163,3.1751,3.1751,3.1908,3.191,0,0,0,0,0,0,0,0,0,0,0,3.1593,3.1595,3.1596,3.163,3.1751,3.1752,3.1908,3.1815,0,0,0,0,0,0,0,0,0,0,3.1697,3.1669,3.1594,3.1596,3.1631,3.1751,3.1752,3.1811,3.1821,3.1855,0,3.1886,0,3.1901,3.1921,3.1921,0,0,0,3.1628,3.1661,3.1691,3.1596,3.1632,3.1751,3.1696,3.1817,3.1828,3.1868,3.1889,3.1894,3.1903,3.1922,3.1922,3.2124,3.2125,0,0,3.1621,3.1617,3.1683,3.1699,3.1682,3.1692,3.17,3.1824,3.1845,3.1889,3.1898,3.1906,3.1923,3.1924,3.2123,3.2124,0,0,0,3.1603,3.1612,3.1639,3.1693,3.1714,3.1695,3.1704,3.1839,3.1849,3.19,3.1908,3.1924,3.1926,3.2122,3.2123,3.217,0,0,0,3.1599,3.1602,3.1637,3.1635,3.1712,3.1779,3.1717,3.184,3.1854,3.1907,3.1924,3.1927,3.2121,3.2123,3.2166,3.2193,0,0,0,3.1585,3.16,3.1619,3.1635,3.1687,3.1777,3.1793,3.1843,3.1859,3.1921,3.1928,3.212,3.2122,3.2163,3.2188,3.2244,0,0,0,3.1568,3.1659,3.1619,3.1723,3.1686,3.1805,3.1792,3.1881,3.194,3.1925,3.2121,3.2123,3.2162,3.2184,3.2241,3.2291,3.2312,0,0,3.168,3.1672,3.1734,3.1702,3.1827,3.1787,3.1919,3.1977,3.1986,3.2077,3.2082,3.2168,3.2187,3.2243,3.2429,3.2445,0,0,0,3.1768,3.1812,3.1846,3.1902,3.1948,3.1989,3.2027,3.2048,3.2126,3.2032,3.2204,3.2215,3.2249,3.2273,3.2287,3.2315,3.2134,3.2134,3.2134,3.192,3.1927,3.2029,3.205,3.2104,3.2142,3.2186,3.222,3.2212,3.2252,3.2279,3.2391,3.2419,3.243,3.2459,3.2307,3.2307,3.2307,3.2307,3.2085,3.2148,3.2133,3.2227,3.2233,3.2312,3.235,3.2342,3.2415,3.2372,3.2401,3.2354,3.2448,3.2474,3.2311,3.231,3.231,3.2309,3.2309,3.2185,3.2217,3.224,3.232,3.238,3.2398,3.2469,3.2472,3.2475,3.2505,3.2533,3.2532,3.2531,3.2518,3.2518,3.2519,3.2519,3.2519,3.2519,3.2281,3.2306,3.2365,3.242,3.2455,3.2502,3.2538,3.2573,3.2611,3.2608,3.2608,3.2595,3.2456,3.242,3.2525,3.2524,3.2524,3.2523,3.2523,3.2445,3.2408,3.2499,3.2534,3.2598,3.2657,3.2659,3.2728,3.2757,3.2791,3.2772,3.2668,3.266,3.2649,3.262,3.277,3.277,3.277,3.277,3.253,3.2525,3.2619,3.2674,3.2729,3.274,3.2841,3.287,3.2894,3.2911,3.289,3.2851,3.284,3.2839,3.2824,3.2796,3.2988,3.2989,3.2989,3.263,3.2631,3.2718,3.2741,3.279,3.2832,3.2927,3.299,3.3009,3.2998,3.2925,3.2916,3.2854,3.2833,3.2821,3.2797,3.2747,0,0]}]]